| time (UTC) | temp F | wind direction | speed MPH | gust MPH | rain 1hr in | rain 24hr in | rain mn in | humidity % | barometer mb |
| 20260507210104 | 70 | 310 | 7.0 | 15.0 | 0.00 | 0.00 | 0.00 | 31 | 1019.7 |
| 20260507204533 | 70 | 308 | 7.0 | 15.0 | 0.00 | 0.00 | 0.00 | 33 | 1019.8 |
| 20260507203106 | 69 | 308 | 6.0 | 13.0 | 0.00 | 0.00 | 0.00 | 33 | 1020.0 |
| 20260507201531 | 70 | 316 | 8.0 | 16.0 | 0.00 | 0.00 | 0.00 | 32 | 1020.0 |
| 20260507200031 | 70 | 307 | 6.0 | 14.0 | 0.00 | 0.00 | 0.00 | 33 | 1020.1 |
| 20260507194530 | 69 | 312 | 7.0 | 17.0 | 0.00 | 0.00 | 0.00 | 33 | 1020.2 |
| 20260507193104 | 68 | 321 | 7.0 | 14.0 | 0.00 | 0.00 | 0.00 | 33 | 1020.3 |
| 20260507190035 | 67 | 318 | 6.0 | 11.0 | 0.00 | 0.00 | 0.00 | 34 | 1020.5 |
| 20260507184527 | 67 | 346 | 4.0 | 11.0 | 0.00 | 0.00 | 0.00 | 37 | 1020.6 |
| 20260507183102 | 66 | 343 | 4.0 | 10.0 | 0.00 | 0.00 | 0.00 | 39 | 1020.8 |
| 20260507181531 | 65 | 343 | 5.0 | 13.0 | 0.00 | 0.00 | 0.00 | 40 | 1020.9 |
| 20260507180029 | 64 | 318 | 5.0 | 11.0 | 0.00 | 0.00 | 0.00 | 42 | 1021.0 |
| 20260507173107 | 62 | 312 | 6.0 | 14.0 | 0.00 | 0.00 | 0.00 | 50 | 1021.2 |
| 20260507171534 | 61 | 325 | 7.0 | 14.0 | 0.00 | 0.00 | 0.00 | 53 | 1021.3 |
| 20260507170033 | 59 | 331 | 5.0 | 10.0 | 0.00 | 0.00 | 0.00 | 55 | 1021.3 |
| 20260507164531 | 58 | 343 | 6.0 | 13.0 | 0.00 | 0.00 | 0.00 | 57 | 1021.3 |
| 20260507163032 | 58 | 347 | 7.0 | 13.0 | 0.00 | 0.00 | 0.00 | 58 | 1021.4 |
| 20260507161533 | 58 | 358 | 7.0 | 14.0 | 0.00 | 0.00 | 0.00 | 59 | 1021.3 |
| 20260507160034 | 57 | 357 | 6.0 | 12.0 | 0.00 | 0.00 | 0.00 | 60 | 1021.4 |
| 20260507154529 | 57 | 5 | 6.0 | 13.0 | 0.00 | 0.00 | 0.00 | 62 | 1021.5 |
| 20260507151531 | 55 | 334 | 5.0 | 9.0 | 0.00 | 0.00 | 0.00 | 66 | 1021.6 |
| 20260507150035 | 54 | 330 | 6.0 | 13.0 | 0.00 | 0.00 | 0.00 | 69 | 1021.5 |
| 20260507144532 | 54 | 340 | 5.0 | 10.0 | 0.00 | 0.00 | 0.00 | 70 | 1021.6 |
| 20260507143106 | 52 | 21 | 5.0 | 10.0 | 0.00 | 0.00 | 0.00 | 75 | 1021.5 |
| 20260507140030 | 49 | 5 | 3.0 | 8.0 | 0.00 | 0.00 | 0.00 | 80 | 1021.1 |
| 20260507134533 | 49 | 17 | 3.0 | 4.0 | 0.00 | 0.00 | 0.00 | 79 | 1021.1 |
| 20260507133029 | 50 | 6 | 2.0 | 5.0 | 0.00 | 0.00 | 0.00 | 79 | 1021.2 |
| 20260507130029 | 50 | 89 | 2.0 | 6.0 | 0.00 | 0.00 | 0.00 | 79 | 1021.2 |
| 20260507123030 | 50 | 334 | 3.0 | 9.0 | 0.00 | 0.00 | 0.00 | 78 | 1021.2 |
| 20260507121607 | 51 | 358 | 3.0 | 8.0 | 0.00 | 0.00 | 0.00 | 79 | 1021.1 |
| 20260507120030 | 51 | 97 | 3.0 | 7.0 | 0.00 | 0.00 | 0.00 | 79 | 1021.1 |
| 20260507113033 | 51 | 60 | 3.0 | 7.0 | 0.00 | 0.00 | 0.00 | 77 | 1021.1 |
| 20260507111530 | 52 | 119 | 2.0 | 7.0 | 0.00 | 0.00 | 0.00 | 74 | 1021.1 |
| 20260507110108 | 53 | 245 | 2.0 | 6.0 | 0.00 | 0.00 | 0.00 | 73 | 1021.1 |
| 20260507104533 | 54 | 265 | 3.0 | 12.0 | 0.00 | 0.00 | 0.00 | 73 | 1021.2 |
| 20260507103032 | 54 | 267 | 3.0 | 13.0 | 0.00 | 0.00 | 0.00 | 71 | 1021.2 |
| 20260507100036 | 55 | 292 | 5.0 | 15.0 | 0.00 | 0.00 | 0.00 | 69 | 1021.1 |
| 20260507094526 | 55 | 288 | 4.0 | 14.0 | 0.00 | 0.00 | 0.00 | 68 | 1021.2 |
| 20260507093033 | 55 | 277 | 4.0 | 10.0 | 0.00 | 0.00 | 0.00 | 67 | 1021.3 |
| 20260507091606 | 56 | 251 | 6.0 | 16.0 | 0.00 | 0.00 | 0.00 | 67 | 1021.3 |
| 20260507090033 | 55 | 245 | 6.0 | 15.0 | 0.00 | 0.00 | 0.00 | 69 | 1021.4 |
| 20260507084530 | 55 | 253 | 5.0 | 12.0 | 0.00 | 0.00 | 0.00 | 70 | 1021.7 |
| 20260507083034 | 56 | 269 | 6.0 | 15.0 | 0.00 | 0.00 | 0.00 | 70 | 1021.8 |
| 20260507081531 | 56 | 270 | 7.0 | 15.0 | 0.00 | 0.00 | 0.00 | 70 | 1021.9 |
| 20260507080031 | 56 | 267 | 8.0 | 15.0 | 0.00 | 0.00 | 0.00 | 70 | 1021.9 |
| 20260507074606 | 56 | 271 | 7.0 | 16.0 | 0.00 | 0.00 | 0.00 | 70 | 1021.9 |
| 20260507073106 | 57 | 271 | 6.0 | 13.0 | 0.00 | 0.00 | 0.00 | 69 | 1021.9 |
| 20260507071531 | 57 | 273 | 6.0 | 15.0 | 0.00 | 0.00 | 0.00 | 69 | 1021.8 |
| 20260507070034 | 57 | 284 | 5.0 | 15.0 | 0.00 | 0.00 | 0.00 | 70 | 1021.8 |
| 20260507063031 | 57 | 289 | 5.0 | 14.0 | 0.00 | 0.00 | 0.00 | 70 | 1022.0 |
| 20260507060030 | 57 | 279 | 4.0 | 7.0 | 0.00 | 0.00 | 0.00 | 70 | 1022.3 |
| 20260507054603 | 57 | 309 | 4.0 | 8.0 | 0.00 | 0.00 | 0.00 | 70 | 1022.3 |
| 20260507053032 | 56 | 278 | 3.0 | 10.0 | 0.00 | 0.00 | 0.00 | 70 | 1022.3 |
| 20260507051530 | 58 | 336 | 2.0 | 4.0 | 0.00 | 0.00 | 0.00 | 68 | 1022.4 |
| 20260507050033 | 58 | 326 | 3.0 | 7.0 | 0.00 | 0.00 | 0.00 | 67 | 1022.4 |
| 20260507044529 | 57 | 309 | 4.0 | 8.0 | 0.00 | 0.00 | 0.00 | 66 | 1022.3 |
| 20260507043030 | 57 | 357 | 2.0 | 7.0 | 0.00 | 0.00 | 0.00 | 65 | 1022.2 |
| 20260507041528 | 58 | 185 | 3.0 | 7.0 | 0.00 | 0.00 | 0.00 | 62 | 1022.1 |
| 20260507034646 | 60 | 262 | 4.0 | 12.0 | 0.00 | 0.00 | 0.00 | 58 | 1022.1 |
| 20260507033030 | 60 | 279 | 4.0 | 14.0 | 0.00 | 0.00 | 0.00 | 59 | 1022.0 |
| 20260507031606 | 61 | 257 | 6.0 | 12.0 | 0.00 | 0.00 | 0.00 | 58 | 1022.0 |
| 20260507030029 | 62 | 251 | 4.0 | 10.0 | 0.00 | 0.00 | 0.00 | 57 | 1022.1 |
| 20260507024530 | 63 | 270 | 5.0 | 13.0 | 0.00 | 0.00 | 0.00 | 55 | 1022.1 |
| 20260507023030 | 64 | 253 | 8.0 | 14.0 | 0.00 | 0.00 | 0.00 | 53 | 1022.0 |
| 20260507021533 | 66 | 256 | 7.0 | 16.0 | 0.00 | 0.00 | 0.00 | 51 | 1021.9 |
| 20260507020031 | 66 | 260 | 8.0 | 20.0 | 0.00 | 0.00 | 0.00 | 50 | 1021.7 |
| 20260507014529 | 67 | 268 | 7.0 | 15.0 | 0.00 | 0.00 | 0.00 | 49 | 1021.6 |
| 20260507013031 | 67 | 259 | 9.0 | 17.0 | 0.00 | 0.00 | 0.00 | 48 | 1021.5 |
| 20260507011531 | 68 | 263 | 8.0 | 19.0 | 0.00 | 0.00 | 0.00 | 46 | 1021.6 |
| 20260507010031 | 68 | 274 | 9.0 | 18.0 | 0.00 | 0.00 | 0.00 | 44 | 1021.5 |
| 20260507004530 | 71 | 272 | 9.0 | 17.0 | 0.00 | 0.00 | 0.00 | 41 | 1021.4 |
| 20260507003032 | 72 | 263 | 6.0 | 14.0 | 0.00 | 0.00 | 0.00 | 42 | 1021.2 |
| 20260507001531 | 71 | 277 | 7.0 | 15.0 | 0.00 | 0.00 | 0.00 | 41 | 1021.2 |
| 20260507000108 | 72 | 260 | 7.0 | 17.0 | 0.00 | 0.00 | 0.00 | 41 | 1021.1 |
| 20260506234532 | 72 | 282 | 6.0 | 17.0 | 0.00 | 0.00 | 0.00 | 42 | 1021.0 |
| 20260506233032 | 73 | 287 | 5.0 | 13.0 | 0.00 | 0.00 | 0.00 | 40 | 1021.0 |
| 20260506231604 | 73 | 274 | 7.0 | 16.0 | 0.00 | 0.00 | 0.00 | 39 | 1020.9 |
| 20260506230031 | 74 | 278 | 8.0 | 16.0 | 0.00 | 0.00 | 0.00 | 38 | 1020.8 |
| 20260506224530 | 76 | 263 | 7.0 | 17.0 | 0.00 | 0.00 | 0.00 | 38 | 1021.0 |
| 20260506223029 | 75 | 269 | 5.0 | 14.0 | 0.00 | 0.00 | 0.00 | 40 | 1021.1 |
| 20260506221532 | 73 | 286 | 6.0 | 14.0 | 0.00 | 0.00 | 0.00 | 41 | 1021.3 |
| 20260506220033 | 75 | 288 | 7.0 | 18.0 | 0.00 | 0.00 | 0.00 | 41 | 1021.2 |
| 20260506214533 | 74 | 282 | 6.0 | 16.0 | 0.00 | 0.00 | 0.00 | 41 | 1021.1 |
| 20260506211529 | 73 | 273 | 6.0 | 15.0 | 0.00 | 0.00 | 0.00 | 43 | 1021.2 |